Weather History for PAWM - April, 2014

Change the Weather History Date:

Monday, April 14, 2014

  Actual Average (PAKK) Record (PAKK)
Temperature  
Mean Temperature 33 °F -  
Max Temperature 36 °F 29 °F 42 °F (2004)
Min Temperature 30 °F 18 °F 0 °F (2009)
Degree Days  
Heating Degree Days 32    
Moisture  
Dew Point 31 °F    
Average Humidity 92    
Maximum Humidity 100    
Minimum Humidity 81    
Precipitation  
Precipitation 0.00 in - - ()
Sea Level Pressure  
Sea Level Pressure 29.77 in    
Wind  
Wind Speed 8 mph (SE)    
Max Wind Speed 20 mph    
Max Gust Speed 29 mph    
Visibility 5 miles    
Events Fog , Rain , Snow    
Averages and records for this station are not official NWS values.
T = Trace of Precipitation, MM = Missing Value Source: NWS Daily Summary

Daily Weather History Graph

Daily Weather History Graph

Search for Another Location

Airport or City:

Trip Planner

Search our weather history database for the weather conditions in past years. The results will help you decide how hot, cold, wet, or windy it might be!

Date:

Astronomy

Apr. 14, 2014 Rise Set
Actual Time 7:22 AM AKDT 10:27 PM AKDT
Civil Twilight 6:25 AM AKDT 11:24 PM AKDT
Nautical Twilight 5:02 AM AKDT 12:50 AM AKDT
Astronomical Twilight 3:26 AM AKDT 2:21 AM AKDT
Moon 10:19 PM AKDT (4/14) 7:15 AM AKDT (4/14)
Length of Visible Light 16h 59m
Length of Day
15h 05m
Full, 100% of the Moon is Illuminated
Apr 14
Full
Apr 14
Full
Apr 21
Last Quarter
Apr 28
New
May 6
First Quarter

Hourly Weather History & Observations

Time (AKDT) Temp. Windchill Dew Point Humidity Pressure Visibility Wind Dir Wind Speed Gust Speed Precip Events Conditions
12:17 AM 32.0 °F 26.4 °F 30.2 °F 93% 29.75 in 0.8 mi SE 5.8 mph - N/A   Overcast
12:21 AM 32.0 °F 28.7 °F 30.2 °F 93% 29.75 in 0.5 mi SE 3.5 mph - N/A Fog Fog
12:42 AM 32.0 °F 27.5 °F 30.2 °F 93% 29.75 in 0.8 mi SE 4.6 mph - N/A   Overcast
12:52 AM 32.0 °F - 30.2 °F 93% 29.75 in 0.5 mi Calm Calm - N/A Fog Fog
12:58 AM 32.0 °F - 30.9 °F 96% 29.78 in 0.5 mi Calm Calm - N/A Fog Fog
1:17 AM 32.0 °F 28.7 °F 30.2 °F 93% 29.75 in 0.8 mi East 3.5 mph - N/A   Overcast
1:31 AM 32.0 °F 27.5 °F 30.2 °F 93% 29.76 in 0.5 mi SE 4.6 mph - N/A Fog Fog
1:56 AM 32.0 °F - 30.2 °F 93% 29.75 in 0.8 mi Calm Calm - N/A   Overcast
1:58 AM 32.0 °F - 30.9 °F 96% 29.79 in 0.8 mi Calm Calm - N/A   Overcast
2:09 AM 32.0 °F 28.7 °F 30.2 °F 93% 29.76 in 1.0 mi SE 3.5 mph - N/A   Overcast
2:13 AM 32.0 °F 28.7 °F 30.2 °F 93% 29.76 in 1.8 mi ESE 3.5 mph - N/A   Overcast
2:17 AM 32.0 °F 28.7 °F 30.2 °F 93% 29.76 in 2.0 mi SE 3.5 mph - N/A   Overcast
2:21 AM 32.0 °F 28.7 °F 30.2 °F 93% 29.76 in 1.2 mi SE 3.5 mph - N/A   Overcast
2:26 AM 32.0 °F 28.7 °F 30.2 °F 93% 29.76 in 1.0 mi SE 3.5 mph - N/A   Overcast
2:32 AM 32.0 °F 27.5 °F 30.2 °F 93% 29.76 in 1.2 mi SE 4.6 mph - N/A   Overcast
2:46 AM 32.0 °F 28.7 °F 30.2 °F 93% 29.76 in 2.0 mi ESE 3.5 mph - N/A   Overcast
2:53 AM 32.0 °F - 30.2 °F 93% 29.76 in 3.0 mi Calm Calm - N/A   Overcast
2:58 AM 32.0 °F 28.7 °F 30.9 °F 96% 29.80 in 3.0 mi ESE 3.5 mph - N/A   Overcast
3:23 AM 32.0 °F - 30.2 °F 93% 29.76 in 5.0 mi Calm Calm - N/A   Overcast
3:33 AM 32.0 °F 28.7 °F 30.2 °F 93% 29.75 in 1.8 mi NNE 3.5 mph - N/A   Overcast
4:05 AM 32.0 °F 27.5 °F 30.2 °F 93% 29.75 in 5.0 mi NE 4.6 mph - N/A   Overcast
4:58 AM 32.0 °F 28.7 °F 30.9 °F 96% 29.79 in 10.0 mi NE 3.5 mph - N/A   Overcast
5:12 AM 32.0 °F 27.5 °F 30.2 °F 93% 29.75 in 10.0 mi North 4.6 mph - N/A   Overcast
5:20 AM 32.0 °F 27.5 °F 30.2 °F 93% 29.74 in 10.0 mi NNE 4.6 mph - N/A   Overcast
5:58 AM 32.0 °F 26.4 °F 32.0 °F 100% 29.78 in 10.0 mi ENE 5.8 mph - N/A   Overcast
6:17 AM 33.8 °F 30.8 °F 32.0 °F 93% 29.74 in 10.0 mi East 3.5 mph - N/A   Overcast
6:58 AM 33.1 °F 28.7 °F 32.0 °F 96% 29.77 in 9.0 mi East 4.6 mph - 0.00 in   Overcast
7:58 AM 33.1 °F 28.7 °F 32.0 °F 96% 29.77 in 10.0 mi East 4.6 mph - N/A   Overcast
8:25 AM 33.8 °F 26.4 °F 33.8 °F 100% 29.73 in 10.0 mi East 9.2 mph - N/A   Overcast
10:51 AM 33.8 °F 23.9 °F 30.2 °F 87% 29.72 in 8.0 mi SE 15.0 mph - 0.00 in Snow Light Snow
10:58 AM 34.0 °F 24.2 °F 30.9 °F 89% 29.76 in 9.0 mi SE 15.0 mph 20.7 mph 0.00 in Snow Light Snow
11:14 AM 33.8 °F 24.3 °F 30.2 °F 87% 29.73 in 3.0 mi SE 13.8 mph 23.0 mph 0.00 in Snow Light Snow
11:50 AM 33.8 °F 23.9 °F 32.0 °F 93% 29.72 in 5.0 mi SE 15.0 mph - 0.00 in Snow Light Snow
11:58 AM 34.0 °F 23.8 °F 32.0 °F 92% 29.76 in 4.0 mi SE 16.1 mph - 0.00 in Snow Light Snow
12:33 PM 33.8 °F 22.8 °F 32.0 °F 93% 29.72 in 3.0 mi SE 18.4 mph 25.3 mph 0.00 in Snow Light Snow
12:38 PM 33.8 °F 23.2 °F 32.0 °F 93% 29.72 in 2.0 mi SE 17.3 mph 24.2 mph 0.00 in Snow Light Snow
12:48 PM 33.8 °F 22.8 °F 32.0 °F 93% 29.72 in 2.5 mi SE 18.4 mph 27.6 mph 0.00 in Snow Light Snow
12:58 PM 33.1 °F 21.5 °F 32.0 °F 96% 29.76 in 2.0 mi SE 19.6 mph 24.2 mph 0.00 in Snow Light Snow
1:03 PM 33.8 °F 23.2 °F 32.0 °F 93% 29.72 in 1.8 mi SE 17.3 mph 24.2 mph 0.00 in Snow Light Snow
1:11 PM 33.8 °F 22.8 °F 32.0 °F 93% 29.72 in 1.5 mi SE 18.4 mph 25.3 mph 0.00 in Snow Light Snow
1:22 PM 33.8 °F 22.8 °F 32.0 °F 93% 29.73 in 0.8 mi SE 18.4 mph 24.2 mph 0.00 in Snow Light Snow
1:28 PM 33.8 °F 22.5 °F 32.0 °F 93% 29.73 in 0.5 mi SE 19.6 mph 25.3 mph 0.00 in Fog , Snow Light Snow
1:33 PM 33.8 °F 22.8 °F 32.0 °F 93% 29.73 in 0.2 mi SE 18.4 mph 26.5 mph 0.00 in Fog , Snow Light Snow
1:39 PM 33.8 °F 22.5 °F 32.0 °F 93% 29.72 in 0.5 mi SE 19.6 mph 26.5 mph 0.00 in Fog , Snow Light Snow
1:45 PM 33.8 °F 22.5 °F 32.0 °F 93% 29.73 in 0.8 mi SE 19.6 mph 25.3 mph 0.00 in Rain Light Rain
1:48 PM 33.8 °F 23.5 °F 32.0 °F 93% 29.73 in 1.2 mi SE 16.1 mph 25.3 mph 0.00 in Rain Light Rain
1:52 PM 33.8 °F 23.2 °F 32.0 °F 93% 29.73 in 3.0 mi SE 17.3 mph 25.3 mph 0.00 in Rain Light Rain
1:58 PM 33.1 °F 21.9 °F 33.1 °F 100% 29.77 in 8.0 mi SE 18.4 mph 24.2 mph 0.00 in   Overcast
2:12 PM 33.8 °F 23.5 °F 33.8 °F 100% 29.74 in 8.0 mi SSE 16.1 mph 23.0 mph N/A   Overcast
2:40 PM 33.8 °F 23.2 °F 33.8 °F 100% 29.74 in 9.0 mi South 17.3 mph 25.3 mph N/A   Overcast
2:53 PM 33.8 °F 23.9 °F 33.8 °F 100% 29.75 in 6.0 mi South 15.0 mph 24.2 mph N/A   Overcast
2:58 PM 34.0 °F 23.4 °F 33.1 °F 96% 29.79 in 6.0 mi South 17.3 mph 23.0 mph N/A   Overcast
3:38 PM 35.6 °F 25.2 °F 32.0 °F 87% 29.76 in 9.0 mi South 18.4 mph 28.8 mph N/A   Overcast
3:46 PM 35.6 °F 25.2 °F 32.0 °F 87% 29.75 in 7.0 mi South 18.4 mph 25.3 mph 0.00 in Rain Light Rain
3:58 PM 36.0 °F 26.7 °F 32.0 °F 86% 29.80 in 10.0 mi South 15.0 mph 24.2 mph 0.00 in   Overcast
4:16 PM 35.6 °F 25.9 °F 30.2 °F 81% 29.77 in 10.0 mi South 16.1 mph 26.5 mph N/A   Overcast
4:34 PM 33.8 °F 24.8 °F 30.2 °F 87% 29.78 in 6.0 mi South 12.7 mph 26.5 mph 0.00 in Rain Light Rain
4:58 PM 34.0 °F 25.5 °F 30.9 °F 89% 29.82 in 9.0 mi SSW 11.5 mph 21.9 mph 0.00 in   Overcast
5:34 PM 33.8 °F 23.9 °F 30.2 °F 87% 29.79 in 9.0 mi South 15.0 mph 24.2 mph N/A   Overcast
5:44 PM 35.6 °F 24.8 °F 30.2 °F 81% 29.79 in 9.0 mi South 19.6 mph 25.3 mph N/A   Overcast
5:58 PM 35.1 °F 25.2 °F 30.0 °F 82% 29.83 in 7.0 mi South 16.1 mph 25.3 mph N/A   Overcast
6:05 PM 33.8 °F 22.5 °F 30.2 °F 87% 29.79 in 5.0 mi South 19.6 mph 25.3 mph 0.00 in Rain Light Rain
6:57 PM 33.1 °F 23.4 °F 28.9 °F 85% 29.85 in 8.0 mi SSW 13.8 mph 21.9 mph 0.00 in   Overcast
7:32 PM 32.0 °F 22.1 °F 28.4 °F 87% 29.82 in 8.0 mi South 13.8 mph 18.4 mph N/A   Overcast
7:46 PM 32.0 °F 23.0 °F 28.4 °F 87% 29.82 in 8.0 mi South 11.5 mph - N/A   Overcast
7:58 PM 32.0 °F 24.2 °F 28.9 °F 88% 29.86 in 8.0 mi South 9.2 mph 18.4 mph N/A   Overcast
8:48 PM 33.8 °F 26.4 °F 28.4 °F 81% 29.82 in 8.0 mi South 9.2 mph - N/A   Overcast
9:58 PM 32.0 °F 24.2 °F 28.9 °F 88% 29.87 in 9.0 mi SE 9.2 mph - N/A   Overcast
10:58 PM 30.9 °F 21.7 °F 28.9 °F 92% 29.87 in 10.0 mi SSE 11.5 mph - N/A   Overcast
11:22 PM 30.2 °F 21.3 °F 28.4 °F 93% 29.84 in 10.0 mi South 10.4 mph - N/A   Scattered Clouds
11:58 PM 30.9 °F 24.3 °F 28.0 °F 89% 29.89 in 10.0 mi SSE 6.9 mph - N/A   Clear